ELFIN-A (43617 NORAD) Tracking and Keplerian Element Data

This shows tracking and keplerian element data for the satellite.

Feedback or suggestion? Click here.




ElementValue
Catalog43617
NameELFIN-A
Epoch Orbit4689
Epoch Day198.81613813
Epoch Year2019
RAAN15.8298
Inclination93.0247
Eccentricity0.0015623
Argument of Perigee183.6678
Mean Anonmoly176.4464
Mean Motion15.38229956
Decay Rate2.387E-05
L11 43617U 18070E 19198.81613813 .00002387 00000-0 63419-4 0 9993
L22 43617 93.0247 15.8298 0015623 183.6678 176.4464 15.38229956 46896

Live tracking and technical data element details for ELFIN-A (NORAD 43617). ELFIN-A can be tracked NOW for your location showing map with azimuth and elevation plus other details from your city location.

Track the satellite on the map from your city or location and see movement details for azimuth, elevation, latitude, longitude, range, height, and movement on the map or in text.







IsCatalogInMostPopularTable: catalog: 43617, numindb: 151
Update: records affected: 1



GetName: 43617 ELFIN-A

Hit Count: updated at: Fri, 19 Jul 2019 23:59:32 GMT